| time (UTC) | temp F | wind direction | speed knots | gust knots | rain 1hr in | rain 24hr in | rain mn in | humidity % | barometer mb |
| 20260507201510 | 73 | 340 | 2.6 | 7.0 | 0.00 | 0.02 | 0.00 | 9 | 1017.6 |
| 20260507201005 | 73 | 183 | 1.7 | 7.0 | 0.00 | 0.02 | 0.00 | 10 | 1017.8 |
| 20260507200504 | 73 | 131 | 1.7 | 7.0 | 0.00 | 0.02 | 0.00 | 10 | 1017.9 |
| 20260507200027 | 74 | 238 | 1.7 | 6.1 | 0.00 | 0.02 | 0.00 | 9 | 1017.8 |
| 20260507195506 | 73 | 356 | 0.9 | 5.2 | 0.00 | 0.02 | 0.00 | 9 | 1017.7 |
| 20260507195007 | 73 | 72 | 1.7 | 8.7 | 0.00 | 0.02 | 0.00 | 9 | 1017.9 |
| 20260507194524 | 73 | 168 | 2.6 | 8.7 | 0.00 | 0.02 | 0.00 | 8 | 1017.9 |
| 20260507194007 | 74 | 145 | 2.6 | 6.1 | 0.00 | 0.02 | 0.00 | 9 | 1018.0 |
| 20260507193506 | 74 | 137 | 1.7 | 7.8 | 0.00 | 0.02 | 0.00 | 9 | 1018.1 |
| 20260507193032 | 73 | 109 | 2.6 | 7.8 | 0.00 | 0.02 | 0.00 | 9 | 1018.3 |
| 20260507192508 | 73 | 37 | 0.9 | 6.1 | 0.00 | 0.02 | 0.00 | 8 | 1018.3 |
| 20260507192007 | 72 | 51 | 1.7 | 7.8 | 0.00 | 0.02 | 0.00 | 10 | 1018.4 |
| 20260507191508 | 72 | 206 | 2.6 | 7.8 | 0.00 | 0.02 | 0.00 | 8 | 1018.3 |
| 20260507191004 | 72 | 195 | 1.7 | 5.2 | 0.00 | 0.02 | 0.00 | 10 | 1018.5 |
| 20260507190505 | 71 | 261 | 1.7 | 5.2 | 0.00 | 0.02 | 0.00 | 11 | 1018.6 |
| 20260507190016 | 70 | 11 | 2.6 | 4.3 | 0.00 | 0.02 | 0.00 | 12 | 1018.6 |
| 20260507185506 | 70 | 351 | 1.7 | 6.1 | 0.00 | 0.02 | 0.00 | 13 | 1018.5 |
| 20260507185006 | 70 | 179 | 1.7 | 7.8 | 0.00 | 0.02 | 0.00 | 13 | 1018.6 |
| 20260507184519 | 69 | 157 | 3.5 | 7.8 | 0.00 | 0.02 | 0.00 | 13 | 1018.7 |
| 20260507184006 | 68 | 87 | 1.7 | 6.1 | 0.00 | 0.02 | 0.00 | 16 | 1018.8 |
| 20260507183508 | 68 | 44 | 2.6 | 6.1 | 0.00 | 0.02 | 0.00 | 15 | 1018.9 |
| 20260507183034 | 69 | 73 | 0.9 | 7.0 | 0.00 | 0.02 | 0.00 | 16 | 1018.9 |
| 20260507182507 | 67 | 131 | 1.7 | 7.0 | 0.00 | 0.02 | 0.00 | 18 | 1019.0 |
| 20260507182016 | 68 | 125 | 1.7 | 7.0 | 0.00 | 0.02 | 0.00 | 19 | 1019.1 |
| 20260507181527 | 67 | 117 | 1.7 | 4.3 | 0.00 | 0.02 | 0.00 | 17 | 1019.2 |
| 20260507181008 | 67 | 94 | 2.6 | 5.2 | 0.00 | 0.02 | 0.00 | 21 | 1019.4 |
| 20260507180508 | 66 | 117 | 0.9 | 7.0 | 0.00 | 0.02 | 0.00 | 22 | 1019.5 |
| 20260507180011 | 65 | 75 | 2.6 | 7.0 | 0.00 | 0.02 | 0.00 | 23 | 1019.6 |
| 20260507175507 | 65 | 27 | 1.7 | 4.3 | 0.00 | 0.02 | 0.00 | 21 | 1019.8 |
| 20260507175006 | 65 | 62 | 2.6 | 4.3 | 0.00 | 0.02 | 0.00 | 22 | 1020.0 |
| 20260507174518 | 66 | 228 | 0.9 | 4.3 | 0.00 | 0.02 | 0.00 | 22 | 1020.1 |
| 20260507174004 | 66 | 129 | 0.9 | 3.5 | 0.00 | 0.02 | 0.00 | 23 | 1020.2 |
| 20260507173513 | 65 | 105 | 0.9 | 4.3 | 0.00 | 0.02 | 0.00 | 24 | 1020.3 |
| 20260507173020 | 64 | 149 | 0.9 | 4.3 | 0.00 | 0.02 | 0.00 | 25 | 1020.3 |
| 20260507172508 | 64 | 129 | 1.7 | 4.3 | 0.00 | 0.02 | 0.00 | 25 | 1020.4 |
| 20260507172008 | 63 | 269 | 0.9 | 3.5 | 0.00 | 0.02 | 0.00 | 26 | 1020.5 |
| 20260507171525 | 62 | 84 | 0.9 | 3.5 | 0.00 | 0.02 | 0.00 | 26 | 1020.6 |
| 20260507171008 | 62 | 161 | 0.9 | 3.5 | 0.00 | 0.02 | 0.00 | 26 | 1020.6 |
| 20260507170510 | 62 | 293 | 0.9 | 4.3 | 0.00 | 0.02 | 0.00 | 27 | 1020.7 |
| 20260507170028 | 61 | 31 | 1.7 | 4.3 | 0.00 | 0.02 | 0.00 | 29 | 1020.7 |
| 20260507165509 | 61 | 117 | 1.7 | 4.3 | 0.00 | 0.02 | 0.00 | 30 | 1020.7 |
| 20260507165011 | 60 | 122 | 0.9 | 3.5 | 0.00 | 0.02 | 0.00 | 29 | 1020.8 |
| 20260507164515 | 60 | 94 | 1.7 | 3.5 | 0.00 | 0.02 | 0.00 | 31 | 1020.8 |
| 20260507164006 | 60 | 93 | 0.9 | 2.6 | 0.00 | 0.02 | 0.00 | 31 | 1020.9 |
| 20260507163506 | 58 | 69 | 0.9 | 3.5 | 0.00 | 0.02 | 0.00 | 33 | 1020.9 |
| 20260507163019 | 58 | 124 | 0.9 | 4.3 | 0.00 | 0.02 | 0.00 | 32 | 1021.0 |
| 20260507162503 | 57 | 148 | 1.7 | 5.2 | 0.00 | 0.02 | 0.00 | 34 | 1021.0 |
| 20260507162003 | 57 | 6 | 1.7 | 5.2 | 0.00 | 0.02 | 0.00 | 36 | 1021.1 |
| 20260507161504 | 57 | 337 | 0.9 | 2.6 | 0.00 | 0.02 | 0.00 | 36 | 1021.1 |
| 20260507161003 | 57 | 60 | 0.9 | 5.2 | 0.00 | 0.02 | 0.00 | 37 | 1021.2 |
| 20260507160506 | 56 | 135 | 0.9 | 5.2 | 0.00 | 0.02 | 0.00 | 37 | 1021.2 |
| 20260507160006 | 55 | 228 | 0.9 | 3.5 | 0.00 | 0.02 | 0.00 | 37 | 1021.3 |
| 20260507155502 | 55 | 135 | 0.9 | 3.5 | 0.00 | 0.02 | 0.00 | 37 | 1021.3 |
| 20260507155004 | 55 | 203 | 0.9 | 3.5 | 0.00 | 0.02 | 0.00 | 39 | 1021.3 |
| 20260507154508 | 54 | 198 | 0.9 | 2.6 | 0.00 | 0.02 | 0.00 | 39 | 1021.3 |
| 20260507154004 | 53 | 86 | 1.7 | 2.6 | 0.00 | 0.02 | 0.00 | 39 | 1021.5 |
| 20260507153504 | 53 | 64 | 0.9 | 2.6 | 0.00 | 0.02 | 0.00 | 39 | 1021.5 |
| 20260507153016 | 52 | 127 | 0.9 | 2.6 | 0.00 | 0.02 | 0.00 | 40 | 1021.6 |
| 20260507152507 | 51 | 238 | 0.9 | 1.7 | 0.00 | 0.02 | 0.00 | 40 | 1021.6 |
| 20260507152005 | 51 | 130 | 0.9 | 2.6 | 0.00 | 0.02 | 0.00 | 41 | 1021.6 |
| 20260507151535 | 50 | 76 | 0.9 | 2.6 | 0.00 | 0.02 | 0.00 | 40 | 1021.6 |
| 20260507151003 | 50 | 136 | 0.9 | 3.5 | 0.00 | 0.02 | 0.00 | 41 | 1021.7 |
| 20260507150503 | 50 | 155 | 0.0 | 3.5 | 0.00 | 0.02 | 0.00 | 42 | 1021.8 |
| 20260507150005 | 49 | 105 | 0.0 | 1.7 | 0.00 | 0.02 | 0.00 | 41 | 1021.7 |
| 20260507145508 | 49 | 181 | 0.0 | 2.6 | 0.00 | 0.02 | 0.00 | 42 | 1021.8 |
| 20260507145004 | 48 | 136 | 0.9 | 2.6 | 0.00 | 0.02 | 0.00 | 42 | 1021.8 |
| 20260507144509 | 48 | 60 | 0.9 | 1.7 | 0.00 | 0.02 | 0.00 | 42 | 1021.9 |
| 20260507144011 | 46 | 135 | 0.9 | 1.7 | 0.00 | 0.02 | 0.00 | 43 | 1021.9 |
| 20260507143502 | 46 | 95 | 0.9 | 2.6 | 0.00 | 0.02 | 0.00 | 46 | 1021.9 |
| 20260507143010 | 45 | 77 | 0.9 | 2.6 | 0.00 | 0.02 | 0.00 | 47 | 1021.9 |
| 20260507142504 | 44 | 85 | 0.0 | 1.7 | 0.00 | 0.02 | 0.00 | 48 | 1022.0 |
| 20260507142003 | 43 | 328 | 0.9 | 1.7 | 0.00 | 0.02 | 0.00 | 49 | 1022.1 |
| 20260507141518 | 43 | 359 | 0.9 | 3.5 | 0.00 | 0.02 | 0.00 | 51 | 1022.1 |
| 20260507141007 | 42 | 86 | 0.0 | 3.5 | 0.00 | 0.02 | 0.00 | 52 | 1022.1 |
| 20260507140509 | 41 | 108 | 0.0 | 2.6 | 0.00 | 0.02 | 0.00 | 53 | 1022.2 |
| 20260507140022 | 40 | 316 | 0.9 | 2.6 | 0.00 | 0.02 | 0.00 | 55 | 1022.1 |
| 20260507135508 | 39 | 307 | 0.0 | 2.6 | 0.00 | 0.02 | 0.00 | 55 | 1022.2 |
| 20260507135006 | 39 | 59 | 0.9 | 2.6 | 0.00 | 0.02 | 0.00 | 56 | 1022.2 |
| 20260507134516 | 38 | 4 | 0.0 | 4.3 | 0.00 | 0.02 | 0.00 | 59 | 1022.3 |
| 20260507134003 | 37 | 91 | 0.9 | 4.3 | 0.00 | 0.02 | 0.00 | 60 | 1022.2 |
| 20260507133505 | 37 | 20 | 0.0 | 1.7 | 0.00 | 0.02 | 0.00 | 63 | 1022.3 |
| 20260507133010 | 36 | 109 | 0.0 | 1.7 | 0.00 | 0.02 | 0.00 | 65 | 1022.2 |
| 20260507132507 | 36 | 23 | 0.0 | 2.6 | 0.00 | 0.02 | 0.00 | 66 | 1022.2 |
| 20260507132010 | 35 | 334 | 0.0 | 2.6 | 0.00 | 0.02 | 0.00 | 67 | 1022.3 |
| 20260507131519 | 35 | 329 | 0.0 | 1.7 | 0.00 | 0.02 | 0.00 | 69 | 1022.4 |
| 20260507131003 | 34 | 73 | 0.0 | 3.5 | 0.00 | 0.02 | 0.00 | 70 | 1022.4 |
| 20260507130506 | 34 | 347 | 0.0 | 3.5 | 0.00 | 0.02 | 0.00 | 72 | 1022.4 |
| 20260507130016 | 33 | 13 | 0.0 | 2.6 | 0.00 | 0.02 | 0.00 | 74 | 1022.4 |
| 20260507125509 | 32 | 67 | 0.0 | 1.7 | 0.00 | 0.02 | 0.00 | 76 | 1022.4 |
| 20260507125012 | 31 | 108 | 0.0 | 1.7 | 0.00 | 0.02 | 0.00 | 80 | 1022.4 |
| 20260507124524 | 29 | 65 | 0.0 | 0.9 | 0.00 | 0.02 | 0.00 | 84 | 1022.4 |
| 20260507124009 | 28 | 87 | 0.0 | 0.9 | 0.00 | 0.02 | 0.00 | 85 | 1022.4 |
| 20260507123511 | 27 | 84 | 0.0 | 0.9 | 0.00 | 0.02 | 0.00 | 86 | 1022.5 |
| 20260507123016 | 27 | 65 | 0.0 | 0.9 | 0.00 | 0.02 | 0.00 | 86 | 1022.5 |
| 20260507122504 | 27 | 22 | 0.0 | 0.9 | 0.00 | 0.02 | 0.00 | 86 | 1022.5 |
| 20260507122003 | 27 | 38 | 0.0 | 0.9 | 0.00 | 0.02 | 0.00 | 86 | 1022.4 |
| 20260507121511 | 27 | 356 | 0.0 | 1.7 | 0.00 | 0.02 | 0.00 | 86 | 1022.7 |
| 20260507121004 | 27 | 349 | 0.0 | 1.7 | 0.00 | 0.02 | 0.00 | 87 | 1022.7 |
| 20260507120507 | 26 | 347 | 0.0 | 0.9 | 0.00 | 0.02 | 0.00 | 88 | 1022.7 |
| 20260507120014 | 26 | 94 | 0.0 | 0.0 | 0.00 | 0.02 | 0.00 | 87 | 1022.7 |
| 20260507115506 | 26 | 94 | 0.0 | 0.0 | 0.00 | 0.02 | 0.00 | 87 | 1022.7 |
| 20260507115007 | 27 | 94 | 0.0 | 0.0 | 0.00 | 0.02 | 0.00 | 87 | 1022.7 |
| 20260507114526 | 27 | 94 | 0.0 | 0.9 | 0.00 | 0.02 | 0.00 | 86 | 1022.6 |
| 20260507114007 | 27 | 94 | 0.0 | 0.9 | 0.00 | 0.02 | 0.00 | 87 | 1022.6 |
| 20260507113509 | 27 | 94 | 0.0 | 0.9 | 0.00 | 0.02 | 0.00 | 87 | 1022.5 |
| 20260507113026 | 27 | 95 | 0.0 | 0.9 | 0.00 | 0.02 | 0.00 | 88 | 1022.6 |
| 20260507112508 | 27 | 335 | 0.0 | 0.9 | 0.00 | 0.02 | 0.00 | 88 | 1022.5 |
| 20260507112013 | 27 | 340 | 0.0 | 0.9 | 0.00 | 0.02 | 0.00 | 89 | 1022.5 |
| 20260507111528 | 26 | 323 | 0.0 | 0.0 | 0.00 | 0.02 | 0.00 | 89 | 1022.7 |
| 20260507111003 | 27 | 321 | 0.0 | 0.0 | 0.00 | 0.02 | 0.00 | 88 | 1022.7 |
| 20260507110502 | 27 | 321 | 0.0 | 0.0 | 0.00 | 0.02 | 0.00 | 88 | 1022.8 |
| 20260507110013 | 27 | 321 | 0.0 | 0.0 | 0.00 | 0.02 | 0.00 | 88 | 1022.8 |
| 20260507105503 | 27 | 321 | 0.0 | 0.0 | 0.00 | 0.02 | 0.00 | 88 | 1022.8 |
| 20260507105003 | 27 | 321 | 0.0 | 0.0 | 0.00 | 0.02 | 0.00 | 88 | 1022.7 |
| 20260507104517 | 27 | 321 | 0.0 | 0.0 | 0.00 | 0.02 | 0.00 | 88 | 1022.7 |
| 20260507104007 | 27 | 321 | 0.0 | 0.9 | 0.00 | 0.02 | 0.00 | 88 | 1022.7 |
| 20260507103507 | 27 | 321 | 0.0 | 0.9 | 0.00 | 0.02 | 0.00 | 89 | 1022.8 |
| 20260507103026 | 27 | 321 | 0.0 | 0.0 | 0.00 | 0.02 | 0.00 | 89 | 1022.7 |
| 20260507102506 | 27 | 320 | 0.0 | 0.0 | 0.00 | 0.02 | 0.00 | 89 | 1022.7 |
| 20260507102010 | 27 | 320 | 0.0 | 0.0 | 0.00 | 0.02 | 0.00 | 88 | 1022.7 |
| 20260507101524 | 27 | 320 | 0.0 | 0.0 | 0.00 | 0.02 | 0.00 | 88 | 1022.8 |
| 20260507101014 | 28 | 320 | 0.0 | 0.0 | 0.00 | 0.02 | 0.00 | 89 | 1022.8 |
| 20260507100509 | 28 | 320 | 0.0 | 0.0 | 0.00 | 0.02 | 0.00 | 89 | 1022.8 |
| 20260507100028 | 28 | 320 | 0.0 | 0.0 | 0.00 | 0.02 | 0.00 | 88 | 1022.8 |
| 20260507095509 | 28 | 320 | 0.0 | 0.9 | 0.00 | 0.02 | 0.00 | 88 | 1022.8 |
| 20260507095008 | 28 | 320 | 0.0 | 0.9 | 0.00 | 0.02 | 0.00 | 88 | 1022.8 |
| 20260507094513 | 28 | 314 | 0.0 | 0.9 | 0.00 | 0.02 | 0.00 | 88 | 1022.8 |
| 20260507094004 | 28 | 329 | 0.0 | 0.9 | 0.00 | 0.02 | 0.00 | 88 | 1022.8 |
| 20260507093507 | 28 | 328 | 0.0 | 0.9 | 0.00 | 0.02 | 0.00 | 88 | 1022.8 |
| 20260507093017 | 27 | 312 | 0.0 | 0.0 | 0.00 | 0.02 | 0.00 | 88 | 1022.8 |
| 20260507092505 | 28 | 308 | 0.0 | 0.0 | 0.00 | 0.02 | 0.00 | 88 | 1022.9 |
| 20260507092008 | 28 | 309 | 0.0 | 0.9 | 0.00 | 0.02 | 0.00 | 88 | 1022.9 |
| 20260507091524 | 28 | 308 | 0.0 | 0.9 | 0.00 | 0.02 | 0.00 | 88 | 1022.9 |
| 20260507091008 | 28 | 37 | 0.0 | 0.9 | 0.00 | 0.02 | 0.00 | 89 | 1023.0 |
| 20260507090507 | 28 | 351 | 0.0 | 0.9 | 0.00 | 0.02 | 0.00 | 87 | 1023.1 |
| 20260507090035 | 28 | 340 | 0.0 | 0.9 | 0.00 | 0.02 | 0.00 | 87 | 1023.1 |
| 20260507085508 | 28 | 357 | 0.0 | 0.9 | 0.00 | 0.02 | 0.00 | 87 | 1023.1 |
| 20260507085010 | 28 | 327 | 0.0 | 0.9 | 0.00 | 0.02 | 0.00 | 87 | 1023.1 |
| 20260507084534 | 28 | 331 | 0.0 | 0.9 | 0.00 | 0.02 | 0.00 | 87 | 1023.1 |
| 20260507084009 | 28 | 322 | 0.0 | 0.9 | 0.00 | 0.02 | 0.00 | 88 | 1023.1 |
| 20260507083511 | 28 | 322 | 0.0 | 0.9 | 0.00 | 0.02 | 0.00 | 89 | 1023.1 |
| 20260507083031 | 28 | 330 | 0.0 | 0.0 | 0.00 | 0.02 | 0.00 | 89 | 1023.1 |
| 20260507082504 | 28 | 330 | 0.0 | 0.0 | 0.00 | 0.02 | 0.00 | 87 | 1023.1 |
| 20260507082006 | 28 | 330 | 0.0 | 0.9 | 0.00 | 0.02 | 0.00 | 88 | 1023.0 |
| 20260507081519 | 28 | 330 | 0.0 | 0.9 | 0.00 | 0.02 | 0.00 | 88 | 1023.0 |
| 20260507081005 | 28 | 330 | 0.0 | 0.9 | 0.00 | 0.02 | 0.00 | 87 | 1023.0 |
| 20260507080512 | 28 | 330 | 0.0 | 0.9 | 0.00 | 0.02 | 0.00 | 88 | 1022.9 |
| 20260507080024 | 28 | 331 | 0.0 | 0.9 | 0.00 | 0.02 | 0.00 | 88 | 1022.8 |
| 20260507075507 | 28 | 327 | 0.0 | 0.9 | 0.00 | 0.02 | 0.00 | 88 | 1022.9 |
| 20260507075010 | 28 | 327 | 0.0 | 0.0 | 0.00 | 0.02 | 0.00 | 87 | 1022.9 |
| 20260507074538 | 28 | 327 | 0.0 | 0.0 | 0.00 | 0.02 | 0.00 | 87 | 1023.0 |
| 20260507074008 | 28 | 327 | 0.0 | 0.0 | 0.00 | 0.02 | 0.00 | 86 | 1022.9 |
| 20260507073510 | 28 | 327 | 0.0 | 0.9 | 0.00 | 0.02 | 0.00 | 85 | 1022.9 |
| 20260507073029 | 29 | 326 | 0.0 | 0.9 | 0.00 | 0.02 | 0.00 | 85 | 1022.9 |
| 20260507072510 | 29 | 328 | 0.0 | 0.9 | 0.00 | 0.02 | 0.00 | 86 | 1022.8 |
| 20260507072012 | 29 | 10 | 0.0 | 0.9 | 0.00 | 0.02 | 0.00 | 85 | 1022.8 |
| 20260507071532 | 29 | 10 | 0.0 | 0.9 | 0.00 | 0.02 | 0.00 | 85 | 1022.8 |
| 20260507071011 | 30 | 11 | 0.0 | 0.9 | 0.00 | 0.02 | 0.00 | 86 | 1022.9 |
| 20260507070507 | 30 | 11 | 0.0 | 0.9 | 0.00 | 0.02 | 0.00 | 86 | 1022.9 |
| 20260507070021 | 30 | 11 | 0.0 | 0.9 | 0.00 | 0.02 | 0.00 | 85 | 1022.8 |
| 20260507065508 | 30 | 344 | 0.0 | 0.9 | 0.00 | 0.02 | 0.00 | 86 | 1022.8 |
| 20260507065009 | 30 | 344 | 0.0 | 0.9 | 0.00 | 0.02 | 0.00 | 86 | 1022.8 |
| 20260507064525 | 30 | 358 | 0.0 | 0.9 | 0.00 | 0.02 | 0.00 | 86 | 1022.8 |
| 20260507064008 | 30 | 358 | 0.0 | 0.9 | 0.00 | 0.02 | 0.00 | 86 | 1022.7 |
| 20260507063511 | 30 | 358 | 0.0 | 1.7 | 0.00 | 0.02 | 0.00 | 86 | 1022.6 |
| 20260507063006 | 31 | 358 | 0.0 | 1.7 | 0.00 | 0.02 | 0.00 | 86 | 1022.6 |
| 20260507062503 | 31 | 339 | 0.0 | 1.7 | 0.00 | 0.02 | 0.00 | 85 | 1022.6 |
| 20260507062004 | 31 | 346 | 0.0 | 0.9 | 0.00 | 0.02 | 0.00 | 85 | 1022.6 |
| 20260507061512 | 31 | 37 | 0.0 | 0.9 | 0.00 | 0.02 | 0.00 | 85 | 1022.6 |
| 20260507061004 | 32 | 37 | 0.0 | 0.9 | 0.00 | 0.02 | 0.00 | 85 | 1022.6 |
| 20260507060505 | 32 | 37 | 0.0 | 0.9 | 0.00 | 0.02 | 0.00 | 85 | 1022.5 |
| 20260507060016 | 32 | 37 | 0.0 | 0.9 | 0.00 | 0.02 | 0.00 | 87 | 1022.4 |
| 20260507055505 | 32 | 88 | 0.0 | 0.0 | 0.00 | 0.02 | 0.02 | 86 | 1022.5 |
| 20260507055004 | 32 | 88 | 0.0 | 0.9 | 0.00 | 0.02 | 0.02 | 85 | 1022.4 |
| 20260507054521 | 33 | 88 | 0.0 | 0.9 | 0.00 | 0.02 | 0.02 | 85 | 1022.4 |
| 20260507054007 | 33 | 88 | 0.0 | 0.9 | 0.00 | 0.02 | 0.02 | 85 | 1022.4 |
| 20260507053508 | 33 | 108 | 0.0 | 0.0 | 0.00 | 0.02 | 0.02 | 84 | 1022.4 |
| 20260507053026 | 34 | 108 | 0.0 | 0.0 | 0.00 | 0.02 | 0.02 | 83 | 1022.3 |
| 20260507052503 | 34 | 108 | 0.0 | 0.9 | 0.00 | 0.02 | 0.02 | 84 | 1022.2 |
| 20260507052005 | 34 | 108 | 0.0 | 0.9 | 0.00 | 0.02 | 0.02 | 83 | 1022.3 |
| 20260507051506 | 35 | 108 | 0.0 | 0.9 | 0.00 | 0.02 | 0.02 | 83 | 1022.2 |
| 20260507051002 | 35 | 108 | 0.0 | 0.9 | 0.00 | 0.02 | 0.02 | 82 | 1022.0 |
| 20260507050503 | 35 | 108 | 0.0 | 0.9 | 0.00 | 0.02 | 0.02 | 81 | 1021.9 |
| 20260507050008 | 35 | 146 | 0.0 | 0.9 | 0.00 | 0.03 | 0.02 | 81 | 1021.9 |
| 20260507045503 | 36 | 143 | 0.0 | 0.9 | 0.00 | 0.03 | 0.02 | 80 | 1021.8 |
| 20260507045003 | 36 | 128 | 0.0 | 0.9 | 0.00 | 0.03 | 0.02 | 80 | 1021.8 |
| 20260507044514 | 36 | 127 | 0.0 | 0.9 | 0.00 | 0.03 | 0.02 | 80 | 1021.7 |
| 20260507044009 | 37 | 235 | 0.0 | 0.9 | 0.00 | 0.03 | 0.02 | 78 | 1021.7 |
| 20260507043505 | 37 | 235 | 0.0 | 1.7 | 0.00 | 0.03 | 0.02 | 78 | 1021.6 |
| 20260507043018 | 37 | 297 | 0.0 | 1.7 | 0.00 | 0.03 | 0.02 | 76 | 1021.5 |
| 20260507042507 | 37 | 140 | 0.0 | 1.7 | 0.00 | 0.03 | 0.02 | 73 | 1021.5 |
| 20260507042012 | 37 | 140 | 0.0 | 1.7 | 0.00 | 0.03 | 0.02 | 65 | 1021.4 |
| 20260507041522 | 38 | 140 | 0.0 | 1.7 | 0.00 | 0.03 | 0.02 | 62 | 1021.3 |
| 20260507041008 | 38 | 70 | 0.0 | 0.9 | 0.00 | 0.03 | 0.02 | 60 | 1021.1 |
| 20260507040503 | 39 | 359 | 0.0 | 0.9 | 0.00 | 0.03 | 0.02 | 58 | 1020.9 |
| 20260507040005 | 40 | 359 | 0.0 | 0.9 | 0.00 | 0.03 | 0.02 | 57 | 1020.7 |
| 20260507035503 | 40 | 359 | 0.0 | 0.0 | 0.00 | 0.03 | 0.02 | 56 | 1020.6 |
| 20260507035003 | 41 | 359 | 0.0 | 0.0 | 0.00 | 0.03 | 0.02 | 55 | 1020.5 |
| 20260507034510 | 41 | 359 | 0.0 | 0.0 | 0.00 | 0.03 | 0.02 | 53 | 1020.4 |
| 20260507034009 | 42 | 359 | 0.0 | 0.0 | 0.00 | 0.03 | 0.02 | 52 | 1020.3 |
| 20260507033509 | 42 | 359 | 0.0 | 0.0 | 0.00 | 0.03 | 0.02 | 51 | 1020.1 |
| 20260507033019 | 43 | 359 | 0.0 | 0.0 | 0.00 | 0.03 | 0.02 | 49 | 1020.1 |
| 20260507032505 | 44 | 359 | 0.0 | 0.0 | 0.00 | 0.03 | 0.02 | 48 | 1020.0 |
| 20260507032006 | 45 | 359 | 0.0 | 0.9 | 0.00 | 0.03 | 0.02 | 46 | 1020.0 |
| 20260507031520 | 46 | 359 | 0.0 | 0.9 | 0.00 | 0.03 | 0.02 | 46 | 1019.9 |
| 20260507031007 | 46 | 359 | 0.0 | 0.9 | 0.00 | 0.03 | 0.02 | 45 | 1019.9 |
| 20260507030513 | 46 | 359 | 0.0 | 0.9 | 0.00 | 0.03 | 0.02 | 45 | 1019.7 |
| 20260507030026 | 47 | 357 | 0.0 | 0.9 | 0.00 | 0.03 | 0.02 | 44 | 1019.6 |
| 20260507025510 | 47 | 358 | 0.0 | 2.6 | 0.00 | 0.03 | 0.02 | 43 | 1019.4 |
| 20260507025011 | 48 | 346 | 0.0 | 2.6 | 0.00 | 0.03 | 0.02 | 42 | 1019.3 |
| 20260507024508 | 48 | 342 | 0.0 | 2.6 | 0.00 | 0.03 | 0.02 | 42 | 1019.1 |
| 20260507024003 | 49 | 268 | 0.0 | 7.0 | 0.00 | 0.03 | 0.02 | 41 | 1019.1 |
| 20260507023502 | 49 | 281 | 0.0 | 7.0 | 0.00 | 0.03 | 0.02 | 40 | 1018.9 |
| 20260507023013 | 49 | 225 | 0.9 | 5.2 | 0.00 | 0.03 | 0.02 | 40 | 1018.8 |
| 20260507022504 | 49 | 272 | 0.9 | 5.2 | 0.00 | 0.03 | 0.02 | 39 | 1018.7 |
| 20260507022006 | 50 | 58 | 0.0 | 3.5 | 0.00 | 0.03 | 0.02 | 40 | 1018.6 |
| 20260507021517 | 50 | 277 | 0.0 | 3.5 | 0.00 | 0.03 | 0.02 | 41 | 1018.5 |
| 20260507021009 | 50 | 126 | 0.0 | 4.3 | 0.00 | 0.03 | 0.02 | 40 | 1018.3 |
| 20260507020508 | 50 | 276 | 0.9 | 4.3 | 0.00 | 0.03 | 0.02 | 41 | 1018.2 |
| 20260507020021 | 50 | 281 | 0.9 | 4.3 | 0.00 | 0.03 | 0.02 | 42 | 1018.2 |
| 20260507015511 | 50 | 38 | 0.0 | 1.7 | 0.00 | 0.03 | 0.02 | 43 | 1018.1 |
| 20260507015007 | 50 | 235 | 0.0 | 1.7 | 0.00 | 0.03 | 0.02 | 43 | 1018.0 |
| 20260507014535 | 50 | 337 | 0.0 | 7.0 | 0.00 | 0.03 | 0.02 | 45 | 1018.1 |
| 20260507014009 | 49 | 147 | 0.9 | 13.9 | 0.00 | 0.03 | 0.02 | 45 | 1018.1 |
| 20260507013509 | 49 | 142 | 1.7 | 13.9 | 0.00 | 0.03 | 0.02 | 48 | 1018.2 |
| 20260507013028 | 48 | 281 | 0.9 | 4.3 | 0.00 | 0.03 | 0.02 | 59 | 1018.1 |
| 20260507012504 | 48 | 50 | 0.0 | 0.9 | 0.00 | 0.03 | 0.02 | 58 | 1018.1 |
| 20260507012004 | 48 | 43 | 0.0 | 0.9 | 0.00 | 0.03 | 0.02 | 58 | 1018.1 |
| 20260507011526 | 48 | 106 | 0.0 | 0.9 | 0.00 | 0.03 | 0.02 | 59 | 1017.8 |
| 20260507011003 | 48 | 106 | 0.0 | 1.7 | 0.00 | 0.03 | 0.02 | 59 | 1017.6 |
| 20260507010507 | 48 | 350 | 0.0 | 1.7 | 0.00 | 0.03 | 0.02 | 61 | 1017.5 |
| 20260507010019 | 48 | 4 | 0.0 | 1.7 | 0.00 | 0.03 | 0.02 | 61 | 1017.4 |
| 20260507005507 | 48 | 1 | 0.0 | 2.6 | 0.00 | 0.03 | 0.02 | 62 | 1017.4 |
| 20260507005008 | 48 | 340 | 0.9 | 2.6 | 0.00 | 0.03 | 0.02 | 61 | 1017.5 |
| 20260507004521 | 48 | 340 | 0.9 | 2.6 | 0.01 | 0.03 | 0.02 | 61 | 1017.4 |
| 20260507004007 | 48 | 360 | 0.0 | 0.9 | 0.01 | 0.03 | 0.02 | 61 | 1017.3 |
| 20260507003512 | 48 | 349 | 0.0 | 1.7 | 0.01 | 0.03 | 0.02 | 63 | 1017.4 |
| 20260507003024 | 48 | 358 | 0.0 | 1.7 | 0.01 | 0.03 | 0.02 | 63 | 1017.2 |
| 20260507002506 | 48 | 355 | 0.0 | 0.9 | 0.01 | 0.03 | 0.02 | 62 | 1017.1 |
| 20260507002014 | 47 | 355 | 0.0 | 0.9 | 0.01 | 0.03 | 0.02 | 62 | 1017.0 |
| 20260507001535 | 47 | 68 | 0.0 | 0.9 | 0.01 | 0.03 | 0.02 | 64 | 1017.1 |
| 20260507001004 | 47 | 24 | 0.0 | 1.7 | 0.01 | 0.03 | 0.02 | 65 | 1017.1 |
| 20260507000505 | 47 | 13 | 0.0 | 2.6 | 0.01 | 0.03 | 0.02 | 66 | 1017.2 |
| 20260507000016 | 47 | 276 | 0.0 | 2.6 | 0.01 | 0.03 | 0.02 | 67 | 1017.2 |
| 20260506235507 | 47 | 149 | 0.0 | 5.2 | 0.01 | 0.03 | 0.02 | 69 | 1017.3 |
| 20260506235007 | 47 | 62 | 0.9 | 7.0 | 0.01 | 0.03 | 0.02 | 65 | 1017.4 |
| 20260506234522 | 50 | 267 | 2.6 | 7.0 | 0.00 | 0.02 | 0.01 | 58 | 1017.8 |
| 20260506234008 | 52 | 317 | 1.7 | 6.1 | 0.00 | 0.02 | 0.01 | 50 | 1017.5 |
| 20260506233507 | 53 | 285 | 1.7 | 4.3 | 0.00 | 0.02 | 0.01 | 42 | 1017.0 |
| 20260506233024 | 53 | 263 | 0.9 | 4.3 | 0.00 | 0.02 | 0.01 | 42 | 1016.7 |
| 20260506232510 | 54 | 305 | 1.7 | 4.3 | 0.00 | 0.02 | 0.01 | 42 | 1016.5 |
| 20260506232010 | 53 | 266 | 0.9 | 2.6 | 0.00 | 0.02 | 0.01 | 44 | 1016.4 |
| 20260506231525 | 53 | 65 | 0.0 | 6.1 | 0.01 | 0.02 | 0.01 | 45 | 1016.3 |
| 20260506231014 | 53 | 337 | 0.9 | 6.1 | 0.01 | 0.02 | 0.01 | 47 | 1016.2 |
| 20260506230511 | 53 | 6 | 1.7 | 7.0 | 0.01 | 0.02 | 0.01 | 48 | 1016.3 |
| 20260506230029 | 53 | 226 | 1.7 | 9.6 | 0.01 | 0.02 | 0.01 | 49 | 1016.3 |
| 20260506225510 | 53 | 350 | 1.7 | 9.6 | 0.01 | 0.02 | 0.01 | 49 | 1016.3 |
| 20260506225006 | 54 | 342 | 4.3 | 8.7 | 0.01 | 0.02 | 0.01 | 45 | 1016.2 |
| 20260506224518 | 54 | 346 | 0.9 | 7.8 | 0.01 | 0.02 | 0.01 | 44 | 1015.8 |
| 20260506224012 | 54 | 246 | 0.9 | 7.8 | 0.01 | 0.02 | 0.01 | 43 | 1015.5 |
| 20260506223507 | 54 | 217 | 0.9 | 6.1 | 0.01 | 0.02 | 0.01 | 44 | 1015.5 |
| 20260506223024 | 54 | 127 | 1.7 | 6.1 | 0.01 | 0.02 | 0.01 | 44 | 1015.6 |
| 20260506222506 | 53 | 356 | 0.9 | 9.6 | 0.01 | 0.02 | 0.01 | 50 | 1015.5 |
| 20260506222009 | 54 | 291 | 0.9 | 9.6 | 0.01 | 0.02 | 0.01 | 51 | 1015.5 |
| 20260506221525 | 57 | 319 | 2.6 | 6.1 | 0.00 | 0.01 | 0.00 | 36 | 1015.7 |
| 20260506221009 | 58 | 328 | 2.6 | 6.1 | 0.00 | 0.01 | 0.00 | 33 | 1014.9 |
| 20260506220510 | 60 | 22 | 1.7 | 6.1 | 0.00 | 0.01 | 0.00 | 32 | 1014.8 |
| 20260506220034 | 60 | 41 | 1.7 | 7.8 | 0.00 | 0.01 | 0.00 | 32 | 1014.8 |
| 20260506215507 | 59 | 58 | 1.7 | 7.8 | 0.00 | 0.01 | 0.00 | 33 | 1015.0 |
| 20260506215011 | 59 | 304 | 1.7 | 12.2 | 0.00 | 0.01 | 0.00 | 34 | 1015.0 |
| 20260506214527 | 60 | 39 | 1.7 | 12.2 | 0.00 | 0.01 | 0.00 | 34 | 1015.2 |
| 20260506214012 | 62 | 274 | 1.7 | 8.7 | 0.00 | 0.01 | 0.00 | 29 | 1015.1 |
| 20260506213506 | 63 | 145 | 2.6 | 7.8 | 0.00 | 0.01 | 0.00 | 27 | 1015.1 |
| 20260506213019 | 63 | 326 | 1.7 | 7.8 | 0.00 | 0.01 | 0.00 | 28 | 1014.9 |
| 20260506212502 | 63 | 279 | 2.6 | 7.0 | 0.00 | 0.01 | 0.00 | 27 | 1014.8 |
| 20260506212001 | 63 | 55 | 1.7 | 7.0 | 0.00 | 0.01 | 0.00 | 28 | 1014.8 |
| 20260506211504 | 63 | 295 | 2.6 | 7.8 | 0.00 | 0.01 | 0.00 | 28 | 1015.0 |
| 20260506211003 | 63 | 245 | 2.6 | 7.8 | 0.00 | 0.01 | 0.00 | 28 | 1014.9 |
| 20260506210505 | 63 | 295 | 1.7 | 7.0 | 0.00 | 0.01 | 0.00 | 30 | 1014.8 |
| 20260506210006 | 62 | 7 | 1.7 | 7.0 | 0.00 | 0.01 | 0.00 | 31 | 1015.0 |
| 20260506205503 | 62 | 34 | 0.9 | 10.4 | 0.00 | 0.01 | 0.00 | 31 | 1015.0 |
| 20260506205004 | 62 | 290 | 2.6 | 10.4 | 0.00 | 0.01 | 0.00 | 31 | 1014.9 |
| 20260506204508 | 62 | 33 | 2.6 | 9.6 | 0.00 | 0.01 | 0.00 | 31 | 1015.0 |
| 20260506204003 | 61 | 187 | 1.7 | 9.6 | 0.00 | 0.01 | 0.00 | 31 | 1015.0 |
| 20260506203503 | 61 | 129 | 3.5 | 9.6 | 0.00 | 0.01 | 0.00 | 31 | 1015.0 |
| 20260506203010 | 62 | 333 | 2.6 | 7.8 | 0.00 | 0.01 | 0.00 | 31 | 1015.1 |
| 20260506202502 | 61 | 315 | 1.7 | 5.2 | 0.00 | 0.01 | 0.00 | 31 | 1015.0 |
| 20260506202002 | 61 | 174 | 1.7 | 6.1 | 0.00 | 0.01 | 0.00 | 33 | 1015.0 |